Location: Unspecified
(54.1780°N, 0.0000°E)
Time: 04:06:12
(UTC+00:00)

Altair - Visible Passes

Search period start: 20 June 2019 00:00
Search period end: 30 June 2019 00:00
Orbit: 1501 x 1683 km, 47.2° (Epoch: 18 June)

Date Brightness Start Highest point End Pass type
(mag) Time Alt. Az. Time Alt. Az. Time Alt. Az.
20 Jun 8.0 01:56:11 10° W 02:05:10 40° SSW 02:14:16 10° SSE visible
20 Jun 7.8 21:23:13 10° SW 21:32:22 50° SSE 21:41:51 10° E visible
20 Jun 7.6 23:26:46 10° W 23:36:18 59° S 23:46:07 10° ESE visible
21 Jun 7.9 01:31:01 10° W 01:40:04 41° SSW 01:49:16 10° SE visible
21 Jun 7.6 23:01:39 10° WSW 23:11:09 59° S 23:20:58 10° ESE visible
22 Jun 7.9 01:05:51 10° W 01:14:57 43° SSW 01:24:15 10° SE visible
22 Jun 7.6 22:36:32 10° WSW 22:46:00 59° S 22:55:48 10° ESE visible
23 Jun 7.8 00:40:42 10° W 00:49:51 45° SSW 00:59:13 10° SE visible
23 Jun 7.7 22:11:26 10° WSW 22:20:52 59° S 22:30:38 10° ESE visible
24 Jun 7.8 00:15:32 10° W 00:24:44 46° SSW 00:34:10 10° SE visible
24 Jun 8.5 02:20:39 10° W 02:27:44 23° SW 02:34:54 10° S visible
24 Jun 7.7 21:46:20 10° WSW 21:55:43 59° S 22:05:27 10° ESE visible
24 Jun 7.8 23:50:24 10° W 23:59:37 48° SSW 00:09:06 10° SE visible
25 Jun 8.4 01:55:21 10° W 02:02:41 24° SW 02:10:10 10° S visible
25 Jun 7.7 21:21:14 10° WSW 21:30:35 58° S 21:40:17 10° E visible
25 Jun 7.8 23:25:15 10° W 23:34:30 49° SSW 23:44:01 10° SE visible
26 Jun 8.4 01:30:04 10° W 01:37:40 26° SW 01:45:23 10° S visible
26 Jun 7.8 23:00:07 10° W 23:09:22 51° SSW 23:18:55 10° SE visible
27 Jun 8.3 01:04:50 10° W 01:12:37 27° SW 01:20:34 10° SSE visible
27 Jun 7.8 22:34:59 10° W 22:44:15 52° SSW 22:53:49 10° SE visible
28 Jun 8.3 00:39:35 10° W 00:47:34 29° SW 00:55:42 10° SSE visible
28 Jun 7.8 22:09:52 10° W 22:19:07 53° SSW 22:28:42 10° ESE visible
29 Jun 8.3 00:14:23 10° W 00:22:30 31° SW 00:30:26 11° SSE visible
29 Jun 7.8 21:44:44 10° W 21:54:00 54° SSW 22:03:35 10° ESE visible
